Temp
7 7 6 6 6 6 6 5 5 5 5 5 5 5 5 6 5 5 5 5 5 5 5 5 4 5 5 5 4 4 5 5 4 3 3 3 3 3 3 3 3 3 3
7 7 7 7 7 7 6 6 5 5 5 5 5 5 5 5 5 5 5 5 5 5 5 5 4 4 4 3 4 3 4 4 2 3 3 3 3 3 3 3 3 3 3
6 7 7 7 7 7 6 6 6 6 6 6 5 5 5 5 5 4 4 4 5 5 5 5 5 4 4 4 5 3 2 3 3 3 3 3 3 3 3 3 3 3 3
6 6 6 6 6 6 6 6 6 6 6 6 6 6 5 5 5 4 4 4 4 4 4 4 5 4 4 5 5 5 3 3 3 2 2 3 3 3 4 3 3 3 3
6 6 6 6 5 5 5 5 5 5 5 5 5 5 5 5 4 4 3 3 3 3 4 4 4 4 4 5 5 4 3 3 4 3 3 3 4 4 3 3 3 3 3
5 5 5 5 4 4 4 4 4 4 4 4 4 4 4 4 4 3 3 2 2 3 3 3 3 4 4 4 4 4 3 3 3 3 4 2 3 3 3 3 3 3 2
4 4 4 4 4 4 4 4 4 4 4 4 4 4 3 3 3 3 3 2 1 2 2 3 3 3 4 4 4 4 3 2 3 4 3 3 3 2 2 2 2 3 2
3 3 3 3 4 4 4 4 4 4 4 3 3 3 3 3 2 2 2 2 1 1 1 2 3 3 3 4 4 4 4 2 3 3 3 3 3 3 3 2 2 2 2
3 3 3 3 4 3 3 3 3 3 2 2 2 2 2 2 1 0 1 0 0 0 0 1 2 2 3 3 3 3 4 4 4 4 3 3 3 3 2 2 2 2 1
3 3 3 3 2 2 2 2 2 2 2 2 1 1 1 1 1 1 -1 -1 -1 -0 0 1 1 1 2 3 3 3 3 4 4 4 4 3 3 3 2 3 2 2 2
3 3 2 2 1 1 1 1 1 1 1 1 1 1 -1 -1 -1 -0 -1 -2 -2 -1 -1 -0 0 1 1 1 2 2 2 3 3 4 4 3 3 3 2 2 2 2 2
1 1 1 1 1 0 1 1 1 0 0 -0 -1 -1 -1 -2 -2 -3 -2 -2 -2 -2 -2 -1 -1 -1 -0 0 1 2 2 3 3 3 3 3 3 3 2 2 1 2 3
1 0 0 -0 -0 -0 -0 -0 -1 -1 -2 -2 -3 -3 -3 -3 -3 -4 -3 -3 -3 -3 -2 -3 -2 -1 -1 -0 0 1 2 2 2 2 2 2 2 2 2 2 2 2 2
-0 -1 -1 -1 -1 -1 -1 -1 -2 -3 -4 -4 -4 -5 -4 -4 -4 -4 -4 -4 -4 -4 -3 -3 -3 -2 -2 -1 -1 -0 0 1 2 2 2 2 2 2 2 2 3 2 2
-1 -1 -1 -1 -1 -2 -2 -3 -4 -5 -5 -5 -5 -5 -6 -6 -6 -6 -6 -7 -7 -6 -5 -4 -3 -2 -2 -1 -1 -1 -1 0 1 1 1 2 2 2 2 2 2 1 2
-2 -2 -2 -2 -3 -3 -4 -4 -5 -6 -6 -6 -5 -5 -5 -5 -6 -7 -7 -7 -7 -7 -7 -6 -5 -4 -3 -2 -1 -1 -1 -0 0 0 1 1 2 2 2 1 1 1 1
-3 -3 -3 -3 -4 -4 -5 -5 -7 -7 -6 -6 -6 -5 -5 -6 -6 -7 -7 -8 -7 -7 -7 -7 -7 -6 -5 -4 -3 -3 -3 -1 -1 0 1 1 1 1 1 1 1 1 1
-3 -3 -4 -5 -5 -6 -7 -7 -6 -6 -6 -6 -6 -6 -6 -5 -6 -6 -7 -7 -8 -8 -7 -7 -6 -6 -6 -6 -6 -6 -6 -4 -3 -2 -2 -1 -1 -0 1 1 1 1 1
-4 -4 -5 -6 -7 -7 -7 -6 -6 -6 -6 -6 -6 -6 -6 -6 -6 -6 -6 -6 -7 -7 -7 -7 -7 -6 -6 -6 -7 -7 -7 -6 -5 -4 -3 -2 -2 -2 -1 -0 0 -0 0
-5 -6 -7 -7 -7 -7 -6 -6 -6 -6 -7 -7 -7 -7 -7 -7 -7 -7 -6 -7 -6 -7 -7 -7 -6 -6 -6 -6 -6 -6 -6 -7 -6 -6 -6 -5 -5 -4 -4 -3 -2 -3 -1
-6 -7 -7 -7 -7 -7 -6 -6 -7 -7 -7 -7 -7 -7 -7 -7 -7 -7 -7 -7 -7 -7 -7 -7 -7 -6 -6 -6 -6 -6 -5 -6 -5 -6 -6 -6 -6 -5 -3 -3 -3 -2 -1
-7 -7 -7 -7 -7 -6 -6 -6 -7 -7 -7 -7 -7 -7 -7 -7 -7 -7 -7 -7 -7 -7 -7 -7 -7 -6 -6 -6 -6 -6 -6 -5 -5 -6 -6 -6 -6 -6 -5 -4 -4 -2 -2
-7 -8 -7 -7 -7 -7 -6 -7 -8 -7 -7 -7 -8 -8 -8 -8 -8 -7 -7 -7 -7 -7 -7 -6 -6 -6 -6 -6 -5 -5 -5 -5 -5 -5 -5 -5 -4 -4 -4 -3 -3 -3 -3
-7 -7 -7 -8 -7 -7 -7 -7 -8 -8 -8 -8 -8 -8 -8 -8 -8 -8 -8 -7 -7 -7 -7 -7 -6 -5 -5 -5 -5 -4 -4 -4 -4 -4 -4 -4 -4 -4 -3 -3 -3 -3 -3
-8 -8 -8 -8 -7 -7 -8 -8 -8 -8 -8 -8 -9 -9 -9 -9 -9 -9 -8 -8 -8 -8 -7 -7 -6 -5 -5 -5 -5 -5 -5 -5 -5 -4 -4 -4 -4 -4 -3 -3 -3 -3 -3
-8 -8 -8 -8 -8 -8 -8 -8 -8 -8 -8 -8 -8 -9 -9 -10 -10 -9 -9 -9 -8 -8 -8 -7 -6 -6 -6 -6 -6 -6 -5 -5 -4 -4 -4 -3 -3 -3 -4 -4 -4 -4 -4
Height
3141 3140 3141 3141 3141 3140 3140 3140 3141 3141 3141 3141 3141 3141 3141 3141 3141 3141 3141 3141 3141 3142 3142 3144 3144 3145 3146 3146 3149 3151 3150 3153 3154 3156 3157 3159 3161 3163 3164 3166 3167 3169 3170
3134 3134 3134 3133 3133 3132 3132 3132 3132 3132 3132 3132 3132 3132 3133 3134 3134 3134 3133 3134 3134 3134 3135 3136 3135 3134 3132 3134 3137 3143 3145 3143 3146 3148 3148 3151 3154 3156 3159 3159 3162 3164 3166
3127 3127 3127 3127 3126 3126 3125 3125 3124 3124 3124 3123 3123 3123 3123 3123 3124 3124 3125 3125 3126 3127 3127 3128 3127 3126 3122 3122 3126 3127 3132 3134 3137 3139 3142 3141 3144 3148 3151 3152 3156 3158 3160
3122 3121 3121 3121 3120 3119 3118 3118 3117 3116 3115 3115 3115 3114 3113 3112 3112 3113 3114 3116 3117 3117 3119 3119 3118 3116 3116 3115 3118 3119 3122 3124 3128 3126 3125 3132 3136 3139 3142 3145 3148 3151 3153
3117 3116 3116 3115 3115 3113 3112 3110 3109 3108 3107 3106 3106 3105 3104 3103 3102 3102 3103 3105 3106 3107 3109 3110 3109 3106 3106 3107 3109 3111 3112 3116 3118 3119 3113 3123 3126 3127 3132 3136 3140 3144 3146
3111 3111 3110 3109 3108 3107 3106 3105 3103 3101 3099 3098 3098 3097 3096 3095 3093 3092 3093 3093 3095 3097 3098 3100 3100 3100 3100 3100 3102 3104 3105 3107 3110 3111 3110 3113 3117 3120 3125 3128 3132 3136 3139
3105 3104 3103 3103 3101 3099 3098 3096 3095 3093 3091 3088 3087 3087 3086 3085 3085 3083 3082 3082 3084 3087 3089 3091 3091 3092 3093 3093 3095 3096 3097 3100 3100 3102 3103 3106 3109 3111 3115 3119 3123 3127 3130
3100 3099 3097 3095 3094 3093 3091 3090 3088 3087 3085 3082 3079 3078 3076 3077 3076 3074 3073 3073 3073 3076 3079 3081 3082 3084 3085 3086 3087 3089 3088 3087 3089 3093 3095 3097 3098 3099 3103 3109 3113 3118 3122
3094 3092 3091 3090 3090 3089 3087 3085 3082 3079 3077 3075 3070 3069 3067 3065 3065 3065 3064 3065 3064 3065 3068 3069 3071 3072 3075 3076 3077 3078 3080 3081 3083 3083 3084 3086 3087 3091 3093 3098 3102 3107 3111
3089 3088 3087 3087 3085 3083 3080 3077 3073 3071 3069 3067 3064 3061 3058 3057 3055 3055 3055 3056 3056 3055 3058 3059 3060 3062 3063 3066 3067 3068 3070 3073 3073 3074 3075 3078 3081 3084 3086 3088 3092 3096 3098
3085 3084 3083 3082 3079 3077 3073 3069 3066 3062 3058 3056 3053 3051 3050 3048 3046 3044 3042 3045 3048 3048 3048 3050 3050 3052 3052 3054 3057 3058 3059 3062 3064 3065 3066 3069 3072 3075 3077 3080 3082 3084 3089
3081 3079 3077 3075 3072 3069 3065 3061 3058 3054 3049 3044 3042 3041 3038 3038 3036 3034 3030 3030 3035 3038 3037 3040 3039 3041 3042 3042 3045 3047 3049 3052 3055 3056 3057 3059 3062 3066 3068 3069 3073 3076 3079
3075 3073 3070 3068 3064 3061 3058 3055 3050 3045 3042 3038 3034 3032 3029 3026 3026 3026 3022 3019 3020 3024 3025 3028 3028 3029 3030 3032 3034 3037 3039 3041 3044 3047 3048 3050 3053 3056 3059 3060 3063 3066 3069
3069 3067 3064 3061 3058 3054 3050 3047 3044 3040 3037 3034 3030 3027 3024 3021 3018 3015 3012 3010 3007 3007 3011 3012 3014 3017 3018 3022 3024 3027 3028 3029 3032 3035 3038 3040 3042 3045 3049 3051 3052 3055 3057
3064 3062 3058 3055 3051 3048 3044 3039 3037 3035 3032 3030 3027 3023 3020 3016 3012 3008 3004 3002 2999 2997 2997 2997 2999 3005 3009 3011 3013 3015 3017 3019 3019 3023 3026 3028 3031 3035 3037 3039 3042 3043 3046
3058 3056 3054 3050 3046 3042 3038 3034 3033 3031 3028 3025 3022 3019 3015 3012 3009 3003 2999 2997 2995 2992 2990 2990 2991 2994 2996 2999 3002 3006 3007 3008 3010 3011 3014 3017 3019 3022 3025 3028 3031 3033 3035
3053 3050 3048 3046 3042 3038 3034 3031 3029 3025 3023 3020 3018 3014 3011 3008 3005 3001 2998 2994 2990 2988 2986 2985 2985 2986 2987 2989 2991 2994 2997 2996 2997 2999 3001 3003 3007 3010 3013 3017 3020 3022 3025
3047 3044 3042 3040 3036 3032 3030 3025 3023 3021 3019 3016 3014 3010 3007 3005 3002 3000 2996 2994 2989 2985 2982 2980 2980 2981 2981 2982 2983 2984 2986 2987 2986 2988 2992 2994 2997 3000 3003 3006 3009 3011 3013
3041 3038 3037 3034 3030 3026 3024 3021 3020 3018 3016 3013 3009 3006 3004 3002 3000 2997 2994 2991 2990 2985 2982 2980 2978 2979 2979 2979 2980 2980 2981 2982 2981 2982 2984 2985 2987 2990 2992 2994 2997 2999 3000
3035 3033 3030 3027 3026 3022 3019 3019 3018 3015 3013 3010 3007 3003 3001 2999 2996 2994 2992 2990 2988 2985 2982 2981 2979 2979 2979 2977 2977 2977 2978 2977 2978 2978 2978 2979 2981 2982 2983 2985 2987 2989 2992
3029 3027 3025 3023 3022 3019 3016 3017 3015 3012 3010 3008 3005 3002 3000 2997 2994 2992 2990 2989 2986 2984 2982 2979 2977 2977 2977 2977 2976 2976 2975 2975 2976 2975 2975 2975 2975 2977 2980 2980 2979 2981 2982
3025 3024 3022 3019 3018 3016 3015 3014 3011 3010 3008 3005 3002 3000 2998 2996 2993 2991 2990 2988 2985 2984 2982 2980 2979 2978 2977 2977 2977 2976 2976 2974 2974 2974 2973 2973 2973 2973 2972 2971 2971 2971 2974
3022 3021 3019 3017 3014 3013 3013 3011 3008 3007 3005 3002 2999 2997 2996 2994 2992 2990 2989 2987 2985 2983 2981 2980 2979 2978 2977 2975 2975 2975 2976 2975 2973 2973 2972 2970 2969 2968 2966 2965 2965 2965 2967
3017 3018 3017 3015 3012 3012 3010 3008 3007 3006 3003 3000 2997 2995 2993 2992 2990 2988 2987 2986 2984 2983 2982 2981 2979 2978 2977 2976 2974 2973 2973 2972 2971 2971 2970 2968 2966 2964 2962 2961 2961 2961 2960
3015 3015 3013 3011 3009 3010 3008 3005 3004 3003 3001 2998 2996 2993 2991 2990 2988 2986 2985 2984 2982 2981 2979 2978 2976 2975 2973 2972 2970 2969 2969 2968 2967 2966 2965 2966 2964 2962 2960 2959 2957 2955 2955
3011 3010 3009 3006 3006 3006 3005 3003 3002 3000 2998 2996 2995 2993 2991 2989 2987 2985 2983 2982 2979 2977 2976 2974 2971 2970 2968 2967 2966 2965 2964 2963 2962 2961 2959 2958 2957 2956 2956 2953 2952 2950 2947
Wind_Speed
37 37 38 38 37 37 36 35 33 32 33 34 33 32 33 33 32 30 30 31 33 33 36 36 38 37 33 29 35 37 32 33 28 26 25 25 26 27 28 25 25 25 23
32 34 35 36 36 37 37 37 38 37 38 38 40 42 41 38 37 39 38 37 35 33 33 34 39 45 40 39 38 40 43 50 37 31 29 28 28 28 30 30 27 27 25
27 28 29 30 31 32 32 34 36 36 36 39 40 41 43 42 41 39 40 39 38 37 36 35 36 35 35 33 39 40 43 48 37 42 40 33 30 30 29 33 30 29 28
24 26 26 27 28 29 30 30 31 33 35 36 37 38 39 41 38 38 40 40 39 39 37 34 35 35 32 31 27 30 42 42 46 51 43 37 31 31 31 34 34 32 32
21 21 22 23 24 25 27 28 30 31 32 33 34 35 37 38 38 36 36 39 40 39 37 32 32 32 29 24 29 32 34 36 39 35 31 40 32 37 36 35 36 35 34
15 16 17 19 21 22 24 26 28 30 32 32 31 30 30 33 35 36 39 37 38 37 35 31 30 30 28 28 28 27 35 24 23 24 22 38 31 39 36 36 37 38 37
15 17 18 20 22 25 27 29 31 32 34 36 35 34 31 29 31 33 34 36 36 34 33 32 32 30 28 27 25 27 32 28 30 31 26 35 34 42 42 41 39 40 40
17 19 21 23 25 28 30 32 34 34 36 37 38 37 35 31 29 29 30 31 33 33 32 34 35 34 31 29 27 25 27 31 33 32 32 35 39 42 45 42 42 43 45
18 21 23 26 28 30 31 32 34 36 36 36 39 39 38 37 33 31 30 30 31 33 32 34 37 37 35 34 31 28 28 29 30 31 34 35 39 39 43 41 42 46 48
22 24 26 27 29 30 32 33 34 36 37 37 38 39 40 39 37 35 33 33 33 34 34 38 39 39 39 36 35 33 32 29 29 31 32 35 40 43 50 48 40 53 52
23 24 27 29 30 31 32 33 35 36 37 37 38 39 37 37 37 39 37 35 37 37 36 36 41 42 41 41 38 38 36 32 31 32 33 34 37 38 43 55 51 47 54
24 25 28 29 30 31 33 34 36 37 38 38 38 38 37 34 32 34 38 36 36 38 40 39 43 44 46 47 45 42 40 38 35 36 39 39 36 34 39 41 41 45 49
25 26 27 28 29 31 34 35 36 36 36 33 32 31 33 33 34 33 37 42 42 38 40 41 43 45 48 47 46 43 41 41 40 39 43 45 44 42 40 42 42 44 47
25 25 26 27 30 32 34 34 33 33 31 27 25 24 25 27 29 32 33 34 36 36 37 41 45 43 41 47 47 42 39 43 45 46 46 47 47 44 43 43 44 43 46
26 26 27 28 30 32 31 30 30 28 25 24 23 21 22 22 23 24 24 25 28 28 26 35 43 47 44 45 50 46 47 45 49 51 50 48 47 43 41 42 45 42 42
25 26 27 29 30 29 28 28 27 25 24 23 21 20 19 21 23 25 22 24 25 20 17 21 27 34 44 50 51 53 54 52 54 53 49 48 48 44 40 42 43 43 44
25 26 27 28 27 26 25 23 21 20 21 21 21 20 19 20 20 26 23 20 18 18 14 13 15 19 27 33 41 44 47 50 48 48 48 48 46 44 40 42 45 47 48
25 26 26 24 23 21 19 19 20 21 21 20 19 19 17 19 19 18 21 22 23 14 9 8 12 13 15 17 18 21 23 28 35 37 38 39 40 39 39 41 41 46 49
24 25 23 19 17 16 17 19 20 19 18 17 16 16 16 17 14 15 20 15 16 17 15 12 8 4 6 8 10 11 14 15 21 27 31 33 35 36 37 39 41 41 39
23 21 17 14 15 13 16 18 18 17 16 16 15 15 15 14 13 13 14 14 12 12 11 10 8 8 6 5 4 4 10 13 16 18 20 23 22 24 29 31 31 30 33
19 17 14 11 13 13 14 16 15 15 14 14 13 13 12 11 11 11 11 11 10 10 9 9 9 9 8 8 5 5 6 5 10 16 18 19 21 26 24 24 27 28 39
16 13 12 11 12 13 15 14 13 13 14 14 13 13 12 11 11 9 9 10 10 9 9 8 7 7 7 6 4 2 5 5 7 9 12 15 17 18 21 22 27 32 39
12 11 11 11 11 12 13 12 12 13 14 15 14 13 11 11 10 9 9 9 9 9 9 9 9 8 7 7 6 6 3 1 3 6 8 12 14 14 15 16 18 20 26
11 12 12 9 10 12 11 11 11 12 13 13 13 13 12 11 11 11 11 10 10 10 10 9 8 7 6 6 7 7 6 6 5 5 6 8 12 14 16 17 17 18 19
14 10 10 9 9 11 10 9 10 12 12 12 12 13 12 12 12 11 11 11 11 11 12 11 10 9 10 11 13 13 14 14 13 13 13 11 10 12 15 17 19 20 21
13 11 10 9 10 10 9 8 9 10 11 12 11 11 12 13 13 13 14 14 15 16 16 16 16 17 17 17 18 18 18 18 18 20 19 21 21 19 17 18 19 22 24
Wind_Direction
265 267 269 271 273 274 274 274 272 267 269 271 267 269 276 279 278 275 270 268 267 266 265 266 266 265 258 255 263 265 252 255 258 257 251 249 252 254 251 243 243 244 242
265 266 269 270 272 272 274 275 274 272 269 269 269 273 277 278 275 273 272 271 269 267 266 265 264 263 259 240 272 256 262 258 243 246 244 244 246 251 251 244 241 244 242
270 270 271 273 274 275 278 281 282 280 281 282 282 280 281 282 280 274 272 272 271 270 269 266 269 269 275 280 273 253 260 261 258 241 245 241 237 243 245 247 242 240 242
276 277 279 280 281 283 283 283 282 283 285 285 285 287 285 285 284 279 272 270 271 273 273 272 270 270 270 273 265 255 256 265 251 265 268 226 233 236 239 243 240 239 238
274 277 279 280 282 283 285 286 287 287 287 287 289 288 287 286 285 279 271 268 267 267 269 269 267 267 267 263 256 250 252 253 247 287 257 219 225 233 232 235 239 241 241
285 288 290 291 292 292 292 293 293 292 292 291 291 288 285 281 278 276 273 268 264 261 260 260 259 258 258 257 252 252 246 256 241 259 252 217 236 232 235 236 236 239 241
298 300 301 302 305 306 305 305 304 303 301 300 299 297 294 287 279 275 273 266 261 257 255 254 250 250 255 256 252 250 245 234 251 256 245 215 240 237 234 235 235 238 241
306 309 313 315 313 310 307 303 301 300 299 298 295 294 292 288 284 277 272 266 259 253 250 250 248 243 243 247 254 253 245 245 246 248 243 242 245 242 234 241 237 235 235
312 315 315 311 306 301 299 299 299 299 298 298 297 296 292 287 284 279 274 267 257 252 249 248 247 249 244 246 251 251 251 254 255 255 248 245 241 232 228 236 239 239 235
312 311 309 306 303 302 303 304 305 303 301 298 293 292 290 287 283 275 266 265 259 253 248 247 245 247 249 244 248 250 251 249 255 257 257 251 247 233 235 243 254 240 233
309 309 309 308 308 309 309 308 305 303 300 296 291 286 284 284 283 281 275 257 258 254 252 248 247 244 248 249 242 249 249 248 254 256 260 258 250 253 256 252 262 248 237
313 312 310 310 310 311 309 307 305 304 303 300 295 287 282 279 277 278 279 276 260 248 251 247 246 245 246 252 249 244 248 251 251 257 264 265 259 255 257 252 255 245 246
312 310 310 310 310 310 308 308 307 308 308 307 302 294 287 282 282 281 283 280 272 260 252 247 247 245 245 244 250 249 248 250 252 258 263 263 259 253 253 257 254 253 252
310 310 310 310 312 310 308 310 312 311 311 309 309 309 302 295 293 288 284 282 277 270 254 250 243 242 242 240 243 251 252 253 256 260 262 261 262 257 255 251 255 254 253
310 309 311 313 313 312 312 312 313 310 306 309 312 316 316 321 322 309 302 296 289 280 263 251 247 242 245 242 243 249 256 258 262 264 262 260 258 258 256 255 255 259 254
308 310 312 314 313 311 312 313 312 303 300 306 313 312 319 324 334 325 323 297 285 292 285 268 255 248 247 248 246 244 254 258 260 262 258 258 258 255 254 252 250 252 254
308 310 312 313 310 310 312 313 314 312 312 311 315 314 318 324 325 336 333 334 311 284 276 276 273 258 246 245 247 249 248 253 255 255 256 257 256 257 254 250 248 248 252
306 306 308 306 307 311 314 323 325 319 317 315 316 322 322 323 325 329 326 329 331 335 330 275 269 266 260 255 255 254 255 252 253 255 255 256 256 254 252 252 249 249 251
300 302 302 306 313 317 329 330 324 322 322 322 324 324 324 322 321 323 323 318 326 318 328 331 331 308 270 263 272 276 259 261 261 255 254 254 254 254 252 251 252 247 253
298 300 307 315 318 325 333 325 323 326 328 330 331 333 331 330 332 331 330 326 320 320 324 313 315 315 314 313 326 301 254 263 253 262 268 263 260 269 266 263 253 254 251
303 305 306 313 316 324 325 321 326 330 334 336 341 342 344 345 349 348 347 339 345 346 344 348 351 345 335 326 324 300 298 281 256 262 270 274 266 247 247 252 255 257 249
300 297 302 311 312 321 316 315 328 333 332 336 342 346 348 352 2 3 3 358 360 4 13 14 10 357 350 343 0 348 295 292 265 266 272 275 274 276 273 274 264 253 261
293 295 302 304 310 314 307 315 330 331 334 337 341 344 346 350 358 3 5 3 8 11 15 17 15 6 359 355 4 29 34 169 272 286 287 290 297 293 288 286 284 279 271
284 290 298 302 313 309 307 317 325 329 333 341 346 349 351 352 359 1 1 360 3 2 9 1 357 353 348 352 1 0 351 10 359 352 331 316 313 310 308 306 300 294 289
276 279 289 295 303 297 304 318 323 322 332 346 351 351 354 357 360 1 359 358 358 359 357 349 346 347 353 356 357 356 355 340 335 326 320 312 304 301 300 299 299 297 295
267 270 278 290 290 293 299 309 314 321 335 343 351 358 356 358 358 358 357 356 357 354 350 351 354 355 352 350 347 343 337 332 325 320 316 313 308 304 303 302 293 292 292